Regional Weather Roundup
Issued by NWS

Home | Current Version | Previous Version | Graphics & Text | Print | Product List | Glossary On
Versions: 1 2 3 4 5 6 7 8 9 10 11 12 13 14 15 16 17 18 19 20 21 22 23 24 25 26 27 28 29 30 31 32 33 34 35 36 37 38 39 40 41 42 43 44 45 46 47 48 49 50
944
ASUS44 KMEG 282300
RWRTN
TENNESSEE HOURLY STATE WEATHER ROUNDUP
NATIONAL WEATHER SERVICE MEMPHIS TN
600 PM CDT THU JUL 28 2016

TNZ002-004-019-021-049-052-054-088>092-290000-
WEST TENNESSEE

CITY           SKY/WX    TMP DP  RH WIND       PRES   REMARKS
MEMPHIS INTL   PTSUNNY   86  75  69 SW9       29.92R HX  95
NWS MEMPHIS      N/A     85 N/A N/A MISG        N/A
JACKSON        MOSUNNY   88  76  67 SW8       29.91R HX  99
DYERSBURG      CLOUDY   N/A N/A N/A MISG        N/A
PARIS          SUNNY     86  75  70 SW3       29.91S HX  95
LEXINGTON      SUNNY     86  75  70 SW7       29.91S HX  95
$$

TNZ008-025-027-028-033-062-065-066-290000-
NORTH MIDDLE TENNESSEE

CITY           SKY/WX    TMP DP  RH WIND       PRES   REMARKS
NASHVILLE      CLOUDY    85  69  58 CALM      29.93R
CLARKSVILLE    SUNNY     85  72  65 VRB5      29.91R HX  91
COOKEVILLE     MOSUNNY   77  73  88 CALM      29.95R
CROSSVILLE     LGT RAIN  72  71  97 W6        29.99R FOG
$$

TNZ061-075-076-078-094-096-097-290000-
SOUTH MIDDLE TENNESSEE

CITY           SKY/WX    TMP DP  RH WIND       PRES   REMARKS
TULLAHOMA      PTSUNNY   73  73 100 SW6       29.98S
WINCHESTER     MOSUNNY   73  73 100 SW3       29.97F
MCMINNVILLE    PTSUNNY   79  79 100 SW6       29.95S
COLUMBIA       SUNNY     82  82 100 SW9       29.93S HX  97
SHELBYVILLE    MOSUNNY   79  75  89 SW8       29.96S
$$

TNZ017-018-042-046-047-290000-
NORTHEAST TENNESSEE

CITY           SKY/WX    TMP DP  RH WIND       PRES   REMARKS
TRI CITIES     CLOUDY    84  68  58 W9        29.91R
$$

TNZ012-013-036-069-073-074-290000-
CENTRAL EAST TENNESSEE

CITY           SKY/WX    TMP DP  RH WIND       PRES   REMARKS
KNOXVILLE      CLOUDY    79  71  76 SW20G29   29.91R
OAK RIDGE      LGT RAIN  74  72  93 W3        29.93S
GATLINBURG     PTSUNNY   75  70  83 SW9       29.92R
$$

TNZ083-085-099-290000-
SOUTHEAST TENNESSEE

CITY           SKY/WX    TMP DP  RH WIND       PRES   REMARKS
CHATTANOOGA    CLOUDY    78  73  84 SW7       29.94S
$$

SKY/WX REPORTED AS FAIR MEANS FEW OR NO CLOUDS BELOW
12 THOUSAND FEET.





USA.gov is the U.S. government's official web portal to all federal, state and local government web resources and services.